Regional Weather Roundup
Issued by NWS

Home | Current Version | Previous Version | Graphics & Text | Print | Product List | Glossary On
Versions: 1 2 3 4 5 6 7 8 9 10 11 12 13 14 15 16 17 18 19 20 21 22 23 24 25 26 27 28 29 30 31 32 33 34 35 36 37 38 39 40 41 42 43 44 45 46 47 48 49 50
000
ASUS45 KSLC 300910
RWRUT

UTAH REGIONAL WEATHER ROUNDUP
NATIONAL WEATHER SERVICE SALT LAKE CITY UT
300 AM MDT SAT MAY 30 2015

UTZ001>011-023>025-301000-

NORTHERN UTAH

CITY           SKY/WX    TMP DP  RH WIND       PRES   REMARKS
BRIGHAM CITY   CLEAR     54  49  81 N3        30.12F
HILL AFB       CLEAR     55  38  51 E16       30.14S
LOGAN          CLEAR     49  45  86 CALM      30.14S
OGDEN          CLEAR     55  41  59 S8        30.12S
PROVO AIRPORT  PTCLDY    57  41  54 SW7       30.15S
SALT LAKE CITY MOCLDY    59  45  59 S7        30.11F
VERNAL         CLEAR     51  41  68 NW7       30.24S
WENDOVER       CLEAR     57  48  72 NW3       30.10F
HEBER CITY     PTCLDY    43  37  81 CALM      30.22F
WEST JORDAN    CLEAR     55  45  67 CALM      30.14F

$$

UTZ012>022-026-027-301000-

SOUTHERN/CENTRAL UTAH

CITY           SKY/WX    TMP DP  RH WIND       PRES   REMARKS
BLANDING       CLEAR     57  30  35 N10       30.28S
BRYCE CANYON   CLEAR     42  37  82 W7        30.32S
CEDAR CITY     CLEAR     51  44  77 NW5       30.17S
DELTA          CLEAR     56  43  62 NE7       30.13F
HANKSVILLE     CLEAR     55  32  41 CALM      30.17R
MILFORD        CLEAR     52  46  80 W8        30.14F
MOAB/CYNLANDS  CLEAR     59  37  44 SW3       30.14S
PRICE          CLEAR     52  38  58 NE9       30.22F
ST GEORGE      MOSUNNY   72  36  26 CALM      30.04R
KANAB          PTCLDY    57  39  51 NW14      30.19S

$$

REGIONAL REPORTS     COLORADO/ARIZONA

CITY           SKY/WX    TMP DP  RH WIND       PRES   REMARKS
CRAIG, CO      CLEAR     40  37  89 CALM      30.29F
GRAND JUNCTION CLEAR     50  43  77 E5        30.19S
RIFLE          CLEAR     46  39  76 E3        30.27R
MONTROSE       CLEAR     49  38  65 SE7       30.27S
CORTEZ         CLEAR     40  32  73 N6        30.24R
PAGE, AZ       PTCLDY    65  43  44 SE5       30.12S
GRAND CANYON   CLEAR     52  36  54 E3        30.26S
KINGMAN        PTCLDY    66  12  12 S3        30.02F
FLAGSTAFF      CLEAR     43  36  76 CALM      30.28F

$$

REGIONAL REPORTS    NEVADA/IDAHO/WYOMING

CITY           SKY/WX    TMP DP  RH WIND       PRES   REMARKS
LAS VEGAS, NV  PTCLDY    80  25  13 S7        29.88R
ELY            CLEAR     52  42  69 S9        30.19S
ELKO           PTCLDY    57  44  62 E5        30.09S
POCATELLO, ID  CLEAR     51  47  86 N5        30.12S
BURLEY         MOCLDY    59  41  51 S8        30.05F
EVANSTON, WY   CLEAR     49  39  68 S5        30.27F
ROCK SPRINGS   CLEAR     47  39  74 SE9       30.28S
KEMMERER       CLEAR     43  37  81 N9        30.29F

$$


USA.gov is the U.S. government's official web portal to all federal, state and local government web resources and services.